Time,TemperatureF,DewpointF,PressureIn,WindDirection,WindDirectionDegrees,WindSpeedMPH,WindSpeedGustMPH,Humidity,HourlyPrecipIn,Conditions,Clouds,dailyrainin,SoftwareType,DateUTC
2013-07-29 00:00:00,59.8,57.8,30.04,NNE,13,0.0,0.0,93,0.00,,,0.00,Wunderground v.1.15,2013-07-29 04:00:00,
2013-07-29 00:02:00,59.8,57.8,30.04,NNE,13,0.0,0.0,93,0.00,,,0.00,Wunderground v.1.15,2013-07-29 04:02:00,
2013-07-29 00:04:00,59.7,57.7,30.04,NNE,13,0.0,0.0,93,0.00,,,0.00,Wunderground v.1.15,2013-07-29 04:04:00,
2013-07-29 00:08:00,59.6,57.6,30.04,NNE,13,0.0,0.0,93,0.00,,,0.00,Wunderground v.1.15,2013-07-29 04:08:00,
2013-07-29 00:12:00,59.4,57.4,30.04,NNE,13,0.0,0.0,93,0.00,,,0.00,Wunderground v.1.15,2013-07-29 04:12:00,
2013-07-29 00:14:00,59.4,57.7,30.04,NNE,13,0.0,0.0,94,0.00,,,0.00,Wunderground v.1.15,2013-07-29 04:14:00,
2013-07-29 00:20:00,59.2,57.5,30.03,NNE,13,0.0,0.0,94,0.00,,,0.00,Wunderground v.1.15,2013-07-29 04:20:00,
2013-07-29 00:26:00,59.1,57.4,30.03,NNE,13,0.0,0.0,94,0.00,,,0.00,Wunderground v.1.15,2013-07-29 04:26:00,
2013-07-29 00:32:00,59.1,57.4,30.03,NNE,13,0.0,0.0,94,0.00,,,0.00,Wunderground v.1.15,2013-07-29 04:32:00,
2013-07-29 00:38:00,59.0,57.3,30.03,NNE,13,0.0,0.0,94,0.00,,,0.00,Wunderground v.1.15,2013-07-29 04:38:00,
2013-07-29 00:44:00,58.9,57.2,30.03,NNE,13,0.0,0.0,94,0.00,,,0.00,Wunderground v.1.15,2013-07-29 04:44:00,
2013-07-29 00:50:00,58.7,57.0,30.03,NNE,13,0.0,0.0,94,0.00,,,0.00,Wunderground v.1.15,2013-07-29 04:50:00,
2013-07-29 00:56:00,58.6,56.9,30.04,NNE,13,0.0,0.0,94,0.00,,,0.00,Wunderground v.1.15,2013-07-29 04:56:00,
2013-07-29 01:02:00,58.4,57.0,30.03,NNE,13,0.0,0.0,95,0.00,,,0.00,Wunderground v.1.15,2013-07-29 05:02:00,
2013-07-29 01:08:00,58.4,57.0,30.04,NNE,13,0.0,0.0,95,0.00,,,0.00,Wunderground v.1.15,2013-07-29 05:08:00,
2013-07-29 01:14:00,58.4,57.0,30.04,NNE,13,0.0,0.0,95,0.00,,,0.00,Wunderground v.1.15,2013-07-29 05:14:00,
2013-07-29 01:20:00,58.5,57.1,30.04,NNE,13,0.0,0.0,95,0.00,,,0.00,Wunderground v.1.15,2013-07-29 05:20:00,
2013-07-29 01:26:00,58.6,57.2,30.04,NNE,13,0.0,0.0,95,0.00,,,0.00,Wunderground v.1.15,2013-07-29 05:26:00,
2013-07-29 01:32:00,58.6,57.2,30.03,NNE,13,0.0,0.0,95,0.00,,,0.00,Wunderground v.1.15,2013-07-29 05:32:00,
2013-07-29 01:38:00,58.6,57.2,30.03,NNE,13,0.0,0.0,95,0.00,,,0.00,Wunderground v.1.15,2013-07-29 05:38:00,
2013-07-29 01:44:00,58.5,57.1,30.04,NNE,13,0.0,0.0,95,0.00,,,0.00,Wunderground v.1.15,2013-07-29 05:44:00,
2013-07-29 01:50:00,58.4,57.0,30.04,NNE,13,0.0,0.0,95,0.00,,,0.00,Wunderground v.1.15,2013-07-29 05:50:00,
2013-07-29 01:56:00,58.5,57.4,30.04,NNE,13,0.0,0.0,96,0.00,,,0.00,Wunderground v.1.15,2013-07-29 05:56:00,
2013-07-29 02:02:00,58.5,57.4,30.04,NNE,13,0.0,0.0,96,0.00,,,0.00,Wunderground v.1.15,2013-07-29 06:02:00,
2013-07-29 02:08:00,58.5,57.4,30.04,NNE,13,0.0,0.0,96,0.00,,,0.00,Wunderground v.1.15,2013-07-29 06:08:00,
2013-07-29 02:14:00,58.5,57.4,30.04,NNE,13,0.0,0.0,96,0.00,,,0.00,Wunderground v.1.15,2013-07-29 06:14:00,
2013-07-29 02:20:00,58.5,57.4,30.04,NNE,13,0.0,0.0,96,0.00,,,0.00,Wunderground v.1.15,2013-07-29 06:20:00,
2013-07-29 02:26:00,58.5,57.4,30.04,NNE,13,0.0,0.0,96,0.00,,,0.00,Wunderground v.1.15,2013-07-29 06:26:00,
2013-07-29 02:32:00,58.5,57.4,30.04,NNE,13,0.0,0.0,96,0.00,,,0.00,Wunderground v.1.15,2013-07-29 06:32:00,
2013-07-29 02:38:00,58.5,57.4,30.04,NNE,13,0.0,0.0,96,0.00,,,0.00,Wunderground v.1.15,2013-07-29 06:38:00,
2013-07-29 02:44:00,58.5,57.4,30.04,NNE,13,0.0,0.0,96,0.00,,,0.00,Wunderground v.1.15,2013-07-29 06:44:00,
2013-07-29 02:50:00,58.6,57.5,30.04,NNE,13,0.0,0.0,96,0.00,,,0.00,Wunderground v.1.15,2013-07-29 06:50:00,
2013-07-29 02:56:00,58.5,57.4,30.04,NNE,13,0.0,0.0,96,0.00,,,0.00,Wunderground v.1.15,2013-07-29 06:56:00,
2013-07-29 03:02:00,58.4,57.3,30.04,NNE,13,0.0,0.0,96,0.00,,,0.00,Wunderground v.1.15,2013-07-29 07:02:00,
2013-07-29 03:08:00,58.3,57.2,30.04,NNE,13,0.0,0.0,96,0.00,,,0.00,Wunderground v.1.15,2013-07-29 07:08:00,
2013-07-29 03:14:00,58.2,57.1,30.04,NNE,13,0.0,0.0,96,0.00,,,0.00,Wunderground v.1.15,2013-07-29 07:14:00,
2013-07-29 03:20:00,58.1,57.0,30.05,NNE,13,0.0,0.0,96,0.00,,,0.00,Wunderground v.1.15,2013-07-29 07:20:00,
2013-07-29 03:26:00,58.0,56.9,30.05,NNE,13,0.0,0.0,96,0.00,,,0.00,Wunderground v.1.15,2013-07-29 07:26:00,
2013-07-29 03:32:00,57.9,56.8,30.05,NNE,13,0.0,0.0,96,0.00,,,0.00,Wunderground v.1.15,2013-07-29 07:32:00,
2013-07-29 03:38:00,57.9,56.8,30.05,NNE,13,0.0,0.0,96,0.00,,,0.00,Wunderground v.1.15,2013-07-29 07:38:00,
2013-07-29 03:44:00,57.9,56.8,30.05,NNE,13,0.0,0.0,96,0.00,,,0.00,Wunderground v.1.15,2013-07-29 07:44:00,
2013-07-29 03:50:00,57.8,56.7,30.05,NNE,13,0.0,0.0,96,0.00,,,0.00,Wunderground v.1.15,2013-07-29 07:50:00,
2013-07-29 03:56:00,57.7,56.6,30.05,NNE,13,0.0,0.0,96,0.00,,,0.00,Wunderground v.1.15,2013-07-29 07:56:00,
2013-07-29 04:02:00,57.5,56.4,30.05,NNE,13,0.0,0.0,96,0.00,,,0.00,Wunderground v.1.15,2013-07-29 08:02:00,
2013-07-29 04:08:00,57.4,56.3,30.05,NNE,13,0.0,0.0,96,0.00,,,0.00,Wunderground v.1.15,2013-07-29 08:08:00,
2013-07-29 04:14:00,57.3,56.2,30.05,NNE,13,0.0,0.0,96,0.00,,,0.00,Wunderground v.1.15,2013-07-29 08:14:00,
2013-07-29 04:20:00,57.2,56.1,30.05,NNE,13,0.0,0.0,96,0.00,,,0.00,Wunderground v.1.15,2013-07-29 08:20:00,
2013-07-29 04:26:00,57.0,55.9,30.05,NNE,13,0.0,0.0,96,0.00,,,0.00,Wunderground v.1.15,2013-07-29 08:26:00,
2013-07-29 04:32:00,56.9,55.8,30.05,NNE,13,0.0,0.0,96,0.00,,,0.00,Wunderground v.1.15,2013-07-29 08:32:00,
2013-07-29 04:38:00,56.8,55.7,30.05,NNE,13,0.0,0.0,96,0.00,,,0.00,Wunderground v.1.15,2013-07-29 08:38:00,
2013-07-29 04:44:00,56.7,55.6,30.05,NNE,13,0.0,0.0,96,0.00,,,0.00,Wunderground v.1.15,2013-07-29 08:44:00,
2013-07-29 04:50:00,56.6,55.5,30.05,NNE,13,0.0,0.0,96,0.00,,,0.00,Wunderground v.1.15,2013-07-29 08:50:00,
2013-07-29 04:56:00,56.5,55.4,30.05,NNE,13,0.0,1.0,96,0.00,,,0.00,Wunderground v.1.15,2013-07-29 08:56:00,
2013-07-29 05:02:00,56.4,55.3,30.05,NNE,13,0.0,0.0,96,0.00,,,0.00,Wunderground v.1.15,2013-07-29 09:02:00,
2013-07-29 05:08:00,56.3,55.2,30.05,NNE,13,0.0,0.0,96,0.00,,,0.00,Wunderground v.1.15,2013-07-29 09:08:00,
2013-07-29 05:14:00,56.2,55.1,30.05,NNE,13,0.0,0.0,96,0.00,,,0.00,Wunderground v.1.15,2013-07-29 09:14:00,
2013-07-29 05:20:00,56.2,55.1,30.05,NNE,13,0.0,0.0,96,0.00,,,0.00,Wunderground v.1.15,2013-07-29 09:20:00,
2013-07-29 05:26:00,56.2,55.1,30.05,NNE,13,0.0,0.0,96,0.00,,,0.00,Wunderground v.1.15,2013-07-29 09:26:00,
2013-07-29 05:32:00,56.2,55.4,30.06,NNE,13,0.0,0.0,97,0.00,,,0.00,Wunderground v.1.15,2013-07-29 09:32:00,
2013-07-29 05:38:00,56.2,55.4,30.06,NNE,13,0.0,1.0,97,0.00,,,0.00,Wunderground v.1.15,2013-07-29 09:38:00,
2013-07-29 05:44:00,56.3,55.5,30.06,NNE,13,0.0,0.0,97,0.00,,,0.00,Wunderground v.1.15,2013-07-29 09:44:00,
2013-07-29 05:50:00,56.2,55.4,30.06,NNE,13,0.0,0.0,97,0.00,,,0.00,Wunderground v.1.15,2013-07-29 09:50:00,
2013-07-29 05:56:00,56.1,55.0,30.06,NNE,13,0.0,0.0,96,0.00,,,0.00,Wunderground v.1.15,2013-07-29 09:56:00,
2013-07-29 06:02:00,56.0,54.9,30.06,NNE,13,0.0,0.0,96,0.00,,,0.00,Wunderground v.1.15,2013-07-29 10:02:00,
2013-07-29 06:08:00,55.9,54.8,30.07,NNE,13,0.0,0.0,96,0.00,,,0.00,Wunderground v.1.15,2013-07-29 10:08:00,
2013-07-29 06:14:00,55.9,55.1,30.07,NNE,13,0.0,0.0,97,0.00,,,0.00,Wunderground v.1.15,2013-07-29 10:14:00,
2013-07-29 06:20:00,55.7,54.9,30.07,NNE,13,0.0,0.0,97,0.00,,,0.00,Wunderground v.1.15,2013-07-29 10:20:00,
2013-07-29 06:26:00,55.5,54.4,30.08,NNE,13,0.0,0.0,96,0.00,,,0.00,Wunderground v.1.15,2013-07-29 10:26:00,
2013-07-29 06:32:00,55.5,54.4,30.08,North,9,0.0,0.0,96,0.00,,,0.00,Wunderground v.1.15,2013-07-29 10:32:00,
2013-07-29 06:40:00,55.7,54.9,30.08,North,9,0.0,0.0,97,0.00,,,0.00,Wunderground v.1.15,2013-07-29 10:40:00,
2013-07-29 06:46:00,55.7,54.9,30.08,North,9,0.0,0.0,97,0.00,,,0.00,Wunderground v.1.15,2013-07-29 10:46:00,
2013-07-29 06:54:00,55.4,54.3,30.08,North,9,0.0,0.0,96,0.00,,,0.00,Wunderground v.1.15,2013-07-29 10:54:00,
2013-07-29 07:00:00,55.4,54.6,30.08,North,9,0.0,0.0,97,0.00,,,0.00,Wunderground v.1.15,2013-07-29 11:00:00,
2013-07-29 07:06:00,55.4,54.6,30.09,North,9,0.0,0.0,97,0.00,,,0.00,Wunderground v.1.15,2013-07-29 11:06:00,
2013-07-29 07:12:00,55.5,54.7,30.08,North,9,0.0,0.0,97,0.00,,,0.00,Wunderground v.1.15,2013-07-29 11:12:00,
2013-07-29 07:18:00,55.6,54.8,30.08,North,9,0.0,0.0,97,0.00,,,0.00,Wunderground v.1.15,2013-07-29 11:18:00,
2013-07-29 07:24:00,55.8,55.0,30.09,North,9,0.0,0.0,97,0.00,,,0.00,Wunderground v.1.15,2013-07-29 11:24:00,
2013-07-29 07:30:00,56.1,55.3,30.09,North,9,0.0,0.0,97,0.00,,,0.00,Wunderground v.1.15,2013-07-29 11:30:00,
2013-07-29 07:36:00,56.4,55.6,30.09,North,9,0.0,0.0,97,0.00,,,0.00,Wunderground v.1.15,2013-07-29 11:36:00,
2013-07-29 07:42:00,56.8,56.0,30.09,North,9,0.0,0.0,97,0.00,,,0.00,Wunderground v.1.15,2013-07-29 11:42:00,
2013-07-29 07:52:00,57.6,56.8,30.10,North,9,0.0,0.0,97,0.00,,,0.00,Wunderground v.1.15,2013-07-29 11:52:00,
2013-07-29 08:00:00,58.3,57.5,30.10,North,9,0.0,0.0,97,0.00,,,0.00,Wunderground v.1.15,2013-07-29 12:00:00,
2013-07-29 08:06:00,59.0,58.4,30.10,North,9,0.0,1.0,98,0.00,,,0.00,Wunderground v.1.15,2013-07-29 12:06:00,
2013-07-29 08:12:00,59.8,59.2,30.10,North,9,0.0,0.0,98,0.00,,,0.00,Wunderground v.1.15,2013-07-29 12:12:00,
2013-07-29 08:18:00,60.5,59.9,30.10,North,5,0.0,0.0,98,0.00,,,0.00,Wunderground v.1.15,2013-07-29 12:18:00,
2013-07-29 08:24:00,61.3,60.7,30.10,North,5,0.0,0.0,98,0.00,,,0.00,Wunderground v.1.15,2013-07-29 12:24:00,
2013-07-29 08:30:00,61.7,60.8,30.10,North,5,0.0,0.0,97,0.00,,,0.00,Wunderground v.1.15,2013-07-29 12:30:00,
2013-07-29 08:36:00,62.0,60.6,30.11,North,360,1.0,3.0,95,0.00,,,0.00,Wunderground v.1.15,2013-07-29 12:36:00,
2013-07-29 08:42:00,62.4,60.9,30.11,North,360,1.0,1.0,95,0.00,,,0.00,Wunderground v.1.15,2013-07-29 12:42:00,
2013-07-29 08:48:00,63.0,61.2,30.11,North,360,0.0,1.0,94,0.00,,,0.00,Wunderground v.1.15,2013-07-29 12:48:00,
2013-07-29 08:56:00,63.5,61.1,30.11,WSW,243,1.0,5.0,92,0.00,,,0.00,Wunderground v.1.15,2013-07-29 12:56:00,
2013-07-29 09:04:00,64.0,61.3,30.11,SW,233,1.0,1.0,91,0.00,,,0.00,Wunderground v.1.15,2013-07-29 13:04:00,
2013-07-29 09:10:00,64.5,61.8,30.12,SW,234,1.0,1.0,91,0.00,,,0.00,Wunderground v.1.15,2013-07-29 13:10:00,
2013-07-29 09:16:00,64.9,61.9,30.12,SW,236,0.0,1.0,90,0.00,,,0.00,Wunderground v.1.15,2013-07-29 13:16:00,
2013-07-29 09:26:00,65.8,62.1,30.12,SSE,156,0.0,0.0,88,0.00,,,0.00,Wunderground v.1.15,2013-07-29 13:26:00,
2013-07-29 09:34:00,66.4,62.7,30.12,SSW,199,0.0,1.0,88,0.00,,,0.00,Wunderground v.1.15,2013-07-29 13:34:00,
2013-07-29 09:40:00,66.8,62.5,30.12,SW,230,1.0,1.0,86,0.00,,,0.00,Wunderground v.1.15,2013-07-29 13:40:00,
2013-07-29 09:46:00,67.4,63.4,30.12,SW,231,0.0,1.0,87,0.00,,,0.00,Wunderground v.1.15,2013-07-29 13:46:00,
2013-07-29 09:52:00,67.8,63.1,30.12,SW,232,0.0,0.0,85,0.00,,,0.00,Wunderground v.1.15,2013-07-29 13:52:00,
2013-07-29 09:58:00,68.1,63.4,30.12,SW,232,1.0,3.0,85,0.00,,,0.00,Wunderground v.1.15,2013-07-29 13:58:00,
2013-07-29 10:06:00,68.7,64.0,30.12,SW,233,0.0,1.0,85,0.00,,,0.00,Wunderground v.1.15,2013-07-29 14:06:00,
2013-07-29 10:12:00,69.1,64.4,30.12,WSW,237,0.0,1.0,85,0.00,,,0.00,Wunderground v.1.15,2013-07-29 14:12:00,
2013-07-29 10:18:00,69.5,63.8,30.12,WSW,237,1.0,2.0,82,0.00,,,0.00,Wunderground v.1.15,2013-07-29 14:18:00,
2013-07-29 10:24:00,69.9,64.8,30.12,WSW,238,1.0,1.0,84,0.00,,,0.00,Wunderground v.1.15,2013-07-29 14:24:00,
2013-07-29 10:30:00,70.4,65.7,30.12,WSW,238,0.0,0.0,85,0.00,,,0.00,Wunderground v.1.15,2013-07-29 14:30:00,
2013-07-29 10:36:00,70.7,64.6,30.12,WSW,237,1.0,1.0,81,0.00,,,0.00,Wunderground v.1.15,2013-07-29 14:36:00,
2013-07-29 10:42:00,70.7,64.2,30.12,WSW,240,1.0,1.0,80,0.00,,,0.00,Wunderground v.1.15,2013-07-29 14:42:00,
2013-07-29 10:48:00,71.2,65.1,30.12,WSW,241,0.0,2.0,81,0.00,,,0.00,Wunderground v.1.15,2013-07-29 14:48:00,
2013-07-29 10:54:00,71.6,65.5,30.12,SW,217,1.0,3.0,81,0.00,,,0.00,Wunderground v.1.15,2013-07-29 14:54:00,
2013-07-29 11:00:00,71.8,65.3,30.13,SW,215,1.0,1.0,80,0.00,,,0.00,Wunderground v.1.15,2013-07-29 15:00:00,
2013-07-29 11:06:00,72.5,66.0,30.13,SW,224,1.0,1.0,80,0.00,,,0.00,Wunderground v.1.15,2013-07-29 15:06:00,
2013-07-29 11:12:00,73.0,65.4,30.13,SW,235,1.0,1.0,77,0.00,,,0.00,Wunderground v.1.15,2013-07-29 15:12:00,
2013-07-29 11:24:00,73.6,64.4,30.13,WSW,248,1.0,2.0,73,0.00,,,0.00,Wunderground v.1.15,2013-07-29 15:24:00,
2013-07-29 11:30:00,73.8,64.6,30.13,NW,307,2.0,2.0,73,0.00,,,0.00,Wunderground v.1.15,2013-07-29 15:30:00,
2013-07-29 11:38:00,73.9,64.3,30.12,West,275,2.0,4.0,72,0.00,,,0.00,Wunderground v.1.15,2013-07-29 15:38:00,
2013-07-29 11:44:00,74.2,65.8,30.12,West,275,1.0,1.0,75,0.00,,,0.00,Wunderground v.1.15,2013-07-29 15:44:00,
2013-07-29 11:50:00,74.9,64.0,30.12,West,275,0.0,1.0,69,0.00,,,0.00,Wunderground v.1.15,2013-07-29 15:50:00,
2013-07-29 11:58:00,75.0,63.3,30.12,West,275,1.0,1.0,67,0.00,,,0.00,Wunderground v.1.15,2013-07-29 15:58:00,
2013-07-29 12:06:00,75.5,63.3,30.13,North,355,2.0,5.0,66,0.00,,,0.00,Wunderground v.1.15,2013-07-29 16:06:00,
2013-07-29 12:12:00,75.7,63.1,30.13,WNW,285,2.0,4.0,65,0.00,,,0.00,Wunderground v.1.15,2013-07-29 16:12:00,
2013-07-29 12:20:00,75.9,61.5,30.13,NW,314,2.0,2.0,61,0.00,,,0.00,Wunderground v.1.15,2013-07-29 16:20:00,
2013-07-29 12:26:00,76.1,63.0,30.13,WSW,256,1.0,3.0,64,0.00,,,0.00,Wunderground v.1.15,2013-07-29 16:26:00,
2013-07-29 12:32:00,76.1,62.6,30.13,West,278,2.0,3.0,63,0.00,,,0.00,Wunderground v.1.15,2013-07-29 16:32:00,
2013-07-29 12:38:00,76.5,62.5,30.13,West,259,2.0,4.0,62,0.00,,,0.00,Wunderground v.1.15,2013-07-29 16:38:00,
2013-07-29 12:44:00,76.7,62.7,30.13,WSW,252,2.0,2.0,62,0.00,,,0.00,Wunderground v.1.15,2013-07-29 16:44:00,
2013-07-29 12:54:00,77.2,63.6,30.13,WSW,256,2.0,4.0,63,0.00,,,0.00,Wunderground v.1.15,2013-07-29 16:54:00,
2013-07-29 13:00:00,77.3,62.8,30.13,WNW,290,2.0,3.0,61,0.00,,,0.00,Wunderground v.1.15,2013-07-29 17:00:00,
2013-07-29 13:06:00,77.4,62.9,30.12,NNW,334,2.0,5.0,61,0.00,,,0.00,Wunderground v.1.15,2013-07-29 17:06:00,
2013-07-29 13:12:00,77.5,61.6,30.13,NW,319,2.0,2.0,58,0.00,,,0.00,Wunderground v.1.15,2013-07-29 17:12:00,
2013-07-29 13:18:00,77.4,60.0,30.13,NW,316,2.0,3.0,55,0.00,,,0.00,Wunderground v.1.15,2013-07-29 17:18:00,
2013-07-29 13:26:00,77.6,64.0,30.13,North,349,2.0,10.0,63,0.00,,,0.00,Wunderground v.1.15,2013-07-29 17:26:00,
2013-07-29 13:38:00,77.5,60.1,30.13,West,275,3.0,3.0,55,0.00,,,0.00,Wunderground v.1.15,2013-07-29 17:38:00,
2013-07-29 13:44:00,77.8,61.8,30.12,WNW,291,2.0,3.0,58,0.00,,,0.00,Wunderground v.1.15,2013-07-29 17:44:00,
2013-07-29 13:50:00,77.9,59.9,30.12,WNW,297,1.0,2.0,54,0.00,,,0.00,Wunderground v.1.15,2013-07-29 17:50:00,
2013-07-29 13:58:00,78.1,61.1,30.12,WNW,286,2.0,3.0,56,0.00,,,0.00,Wunderground v.1.15,2013-07-29 17:58:00,
2013-07-29 14:04:00,78.4,60.4,30.12,WNW,298,3.0,5.0,54,0.00,,,0.00,Wunderground v.1.15,2013-07-29 18:04:00,
2013-07-29 14:10:00,78.3,62.3,30.12,WNW,302,3.0,6.0,58,0.00,,,0.00,Wunderground v.1.15,2013-07-29 18:10:00,
2013-07-29 14:18:00,78.2,59.7,30.13,West,268,2.0,6.0,53,0.00,,,0.00,Wunderground v.1.15,2013-07-29 18:18:00,
2013-07-29 14:24:00,78.3,61.3,30.12,WNW,289,2.0,3.0,56,0.00,,,0.00,Wunderground v.1.15,2013-07-29 18:24:00,
2013-07-29 14:34:00,78.6,60.6,30.12,NW,307,2.0,4.0,54,0.00,,,0.00,Wunderground v.1.15,2013-07-29 18:34:00,
2013-07-29 14:40:00,78.6,61.1,30.12,WNW,289,2.0,3.0,55,0.00,,,0.00,Wunderground v.1.15,2013-07-29 18:40:00,
2013-07-29 14:46:00,78.5,61.5,30.12,SW,230,3.0,4.0,56,0.00,,,0.00,Wunderground v.1.15,2013-07-29 18:46:00,
2013-07-29 14:52:00,78.4,59.9,30.12,SW,223,3.0,4.0,53,0.00,,,0.00,Wunderground v.1.15,2013-07-29 18:52:00,
2013-07-29 14:58:00,78.1,61.1,30.12,SW,223,2.0,4.0,56,0.00,,,0.00,Wunderground v.1.15,2013-07-29 18:58:00,
2013-07-29 15:04:00,78.1,62.1,30.11,West,272,1.0,3.0,58,0.00,,,0.00,Wunderground v.1.15,2013-07-29 19:04:00,
2013-07-29 15:10:00,78.4,58.8,30.11,NW,304,3.0,4.0,51,0.00,,,0.00,Wunderground v.1.15,2013-07-29 19:10:00,
2013-07-29 15:18:00,78.7,61.7,30.11,WNW,286,3.0,4.0,56,0.00,,,0.00,Wunderground v.1.15,2013-07-29 19:18:00,
2013-07-29 15:24:00,78.9,59.8,30.11,WNW,295,3.0,4.0,52,0.00,,,0.00,Wunderground v.1.15,2013-07-29 19:24:00,
2013-07-29 15:30:00,79.2,60.1,30.11,WSW,239,3.0,3.0,52,0.00,,,0.00,Wunderground v.1.15,2013-07-29 19:30:00,
2013-07-29 15:36:00,79.4,60.2,30.11,WNW,282,3.0,4.0,52,0.00,,,0.00,Wunderground v.1.15,2013-07-29 19:36:00,
2013-07-29 15:42:00,79.4,59.1,30.11,NNW,348,2.0,3.0,50,0.00,,,0.00,Wunderground v.1.15,2013-07-29 19:42:00,
2013-07-29 15:50:00,78.6,58.4,30.11,SW,215,2.0,2.0,50,0.00,,,0.00,Wunderground v.1.15,2013-07-29 19:50:00,
2013-07-29 15:56:00,78.4,60.4,30.11,SW,215,1.0,2.0,54,0.00,,,0.00,Wunderground v.1.15,2013-07-29 19:56:00,
2013-07-29 16:02:00,78.3,60.8,30.11,WNW,296,1.0,1.0,55,0.00,,,0.00,Wunderground v.1.15,2013-07-29 20:02:00,
2013-07-29 16:08:00,78.7,61.7,30.11,WNW,294,2.0,2.0,56,0.00,,,0.00,Wunderground v.1.15,2013-07-29 20:08:00,
2013-07-29 16:14:00,79.2,60.1,30.11,WSW,257,1.0,3.0,52,0.00,,,0.00,Wunderground v.1.15,2013-07-29 20:14:00,
2013-07-29 16:20:00,79.3,61.2,30.10,West,260,2.0,2.0,54,0.00,,,0.00,Wunderground v.1.15,2013-07-29 20:20:00,
2013-07-29 16:26:00,79.3,61.7,30.10,WSW,258,1.0,4.0,55,0.00,,,0.00,Wunderground v.1.15,2013-07-29 20:26:00,
2013-07-29 16:32:00,79.0,62.0,30.10,West,265,1.0,2.0,56,0.00,,,0.00,Wunderground v.1.15,2013-07-29 20:32:00,
2013-07-29 16:40:00,78.8,61.3,30.10,NW,321,1.0,1.0,55,0.00,,,0.00,Wunderground v.1.15,2013-07-29 20:40:00,
2013-07-29 16:48:00,78.6,61.6,30.10,NNW,327,1.0,3.0,56,0.00,,,0.00,Wunderground v.1.15,2013-07-29 20:48:00,
2013-07-29 16:54:00,78.9,62.9,30.10,NNW,327,1.0,1.0,58,0.00,,,0.00,Wunderground v.1.15,2013-07-29 20:54:00,
2013-07-29 17:00:00,79.5,62.9,30.10,NW,322,0.0,3.0,57,0.00,,,0.00,Wunderground v.1.15,2013-07-29 21:00:00,
2013-07-29 17:06:00,79.4,60.2,30.10,NW,322,1.0,3.0,52,0.00,,,0.00,Wunderground v.1.15,2013-07-29 21:06:00,
2013-07-29 17:12:00,79.3,60.7,30.10,NW,322,1.0,4.0,53,0.00,,,0.00,Wunderground v.1.15,2013-07-29 21:12:00,
2013-07-29 17:20:00,79.7,62.1,30.10,NW,317,1.0,3.0,55,0.00,,,0.00,Wunderground v.1.15,2013-07-29 21:20:00,
2013-07-29 17:26:00,79.8,61.1,30.10,NW,314,2.0,3.0,53,0.00,,,0.00,Wunderground v.1.15,2013-07-29 21:26:00,
2013-07-29 17:32:00,79.8,61.7,30.10,WNW,296,2.0,3.0,54,0.00,,,0.00,Wunderground v.1.15,2013-07-29 21:32:00,
2013-07-29 17:40:00,79.7,62.1,30.11,WNW,296,1.0,1.0,55,0.00,,,0.00,Wunderground v.1.15,2013-07-29 21:40:00,
2013-07-29 17:46:00,79.2,60.6,30.11,WNW,296,1.0,1.0,53,0.00,,,0.00,Wunderground v.1.15,2013-07-29 21:46:00,
2013-07-29 17:54:00,79.6,63.0,30.11,WNW,301,1.0,3.0,57,0.00,,,0.00,Wunderground v.1.15,2013-07-29 21:54:00,
2013-07-29 18:04:00,80.0,63.4,30.11,WNW,288,2.0,4.0,57,0.00,,,0.00,Wunderground v.1.15,2013-07-29 22:04:00,
2013-07-29 18:10:00,80.0,61.9,30.11,WNW,283,1.0,2.0,54,0.00,,,0.00,Wunderground v.1.15,2013-07-29 22:10:00,
2013-07-29 18:16:00,79.7,63.6,30.11,WNW,286,2.0,2.0,58,0.00,,,0.00,Wunderground v.1.15,2013-07-29 22:16:00,
2013-07-29 18:24:00,79.7,64.1,30.11,WNW,283,1.0,2.0,59,0.00,,,0.00,Wunderground v.1.15,2013-07-29 22:24:00,
2013-07-29 18:32:00,79.8,62.2,30.12,WNW,295,1.0,3.0,55,0.00,,,0.00,Wunderground v.1.15,2013-07-29 22:32:00,
2013-07-29 18:38:00,79.4,62.3,30.11,WNW,297,2.0,3.0,56,0.00,,,0.00,Wunderground v.1.15,2013-07-29 22:38:00,
2013-07-29 18:44:00,79.3,63.2,30.12,WNW,297,1.0,2.0,58,0.00,,,0.00,Wunderground v.1.15,2013-07-29 22:44:00,
2013-07-29 18:50:00,79.1,63.1,30.12,WNW,294,1.0,1.0,58,0.00,,,0.00,Wunderground v.1.15,2013-07-29 22:50:00,
2013-07-29 18:56:00,78.9,63.4,30.12,WNW,295,1.0,1.0,59,0.00,,,0.00,Wunderground v.1.15,2013-07-29 22:56:00,
2013-07-29 19:02:00,78.8,65.6,30.12,WNW,294,0.0,0.0,64,0.00,,,0.00,Wunderground v.1.15,2013-07-29 23:02:00,
2013-07-29 19:08:00,78.5,63.5,30.12,WNW,295,0.0,0.0,60,0.00,,,0.00,Wunderground v.1.15,2013-07-29 23:08:00,
2013-07-29 19:14:00,78.4,66.1,30.12,WNW,294,0.0,1.0,66,0.00,,,0.00,Wunderground v.1.15,2013-07-29 23:14:00,
2013-07-29 19:20:00,78.2,63.6,30.11,WNW,294,0.0,0.0,61,0.00,,,0.00,Wunderground v.1.15,2013-07-29 23:20:00,
2013-07-29 19:26:00,77.9,64.3,30.12,WNW,295,0.0,0.0,63,0.00,,,0.00,Wunderground v.1.15,2013-07-29 23:26:00,
2013-07-29 19:32:00,77.7,64.1,30.12,WNW,294,0.0,0.0,63,0.00,,,0.00,Wunderground v.1.15,2013-07-29 23:32:00,
2013-07-29 19:38:00,77.7,64.5,30.11,WNW,294,0.0,0.0,64,0.00,,,0.00,Wunderground v.1.15,2013-07-29 23:38:00,
2013-07-29 19:44:00,77.7,65.0,30.11,WNW,294,0.0,0.0,65,0.00,,,0.00,Wunderground v.1.15,2013-07-29 23:44:00,
2013-07-29 19:50:00,77.2,65.4,30.12,WNW,294,0.0,0.0,67,0.00,,,0.00,Wunderground v.1.15,2013-07-29 23:50:00,
2013-07-29 19:56:00,76.8,65.9,30.11,WNW,294,0.0,0.0,69,0.00,,,0.00,Wunderground v.1.15,2013-07-29 23:56:00,
2013-07-29 20:02:00,76.5,65.1,30.11,WNW,290,0.0,0.0,68,0.00,,,0.00,Wunderground v.1.15,2013-07-30 00:02:00,
2013-07-29 20:08:00,76.0,65.9,30.11,WNW,294,0.0,0.0,71,0.00,,,0.00,Wunderground v.1.15,2013-07-30 00:08:00,
2013-07-29 20:14:00,75.5,65.8,30.11,WNW,294,0.0,0.0,72,0.00,,,0.00,Wunderground v.1.15,2013-07-30 00:14:00,
2013-07-29 20:20:00,74.9,65.7,30.11,WNW,294,0.0,0.0,73,0.00,,,0.00,Wunderground v.1.15,2013-07-30 00:20:00,
2013-07-29 20:26:00,74.1,65.3,30.12,WNW,294,0.0,0.0,74,0.00,,,0.00,Wunderground v.1.15,2013-07-30 00:26:00,
2013-07-29 20:32:00,73.4,65.4,30.12,WNW,294,0.0,0.0,76,0.00,,,0.00,Wunderground v.1.15,2013-07-30 00:32:00,
2013-07-29 20:40:00,72.6,65.3,30.12,WNW,294,0.0,0.0,78,0.00,,,0.00,Wunderground v.1.15,2013-07-30 00:40:00,
2013-07-29 20:46:00,72.0,64.8,30.12,WNW,294,0.0,0.0,78,0.00,,,0.00,Wunderground v.1.15,2013-07-30 00:46:00,
2013-07-29 20:52:00,71.6,65.1,30.11,WNW,294,0.0,0.0,80,0.00,,,0.00,Wunderground v.1.15,2013-07-30 00:52:00,
2013-07-29 21:02:00,70.7,63.9,30.11,West,279,0.0,0.0,79,0.00,,,0.00,Wunderground v.1.15,2013-07-30 01:02:00,
2013-07-29 21:08:00,70.4,64.3,30.11,West,278,0.0,0.0,81,0.00,,,0.00,Wunderground v.1.15,2013-07-30 01:08:00,
2013-07-29 21:14:00,70.1,64.3,30.11,West,278,0.0,0.0,82,0.00,,,0.00,Wunderground v.1.15,2013-07-30 01:14:00,
2013-07-29 21:20:00,69.6,64.2,30.11,NW,317,0.0,2.0,83,0.00,,,0.00,Wunderground v.1.15,2013-07-30 01:20:00,
2013-07-29 21:26:00,68.9,63.5,30.11,NW,317,0.0,2.0,83,0.00,,,0.00,Wunderground v.1.15,2013-07-30 01:26:00,
2013-07-29 21:32:00,68.4,63.4,30.13,NW,317,0.0,0.0,84,0.00,,,0.00,Wunderground v.1.15,2013-07-30 01:32:00,
2013-07-29 21:38:00,68.0,63.3,30.12,NW,317,0.0,0.0,85,0.00,,,0.00,Wunderground v.1.15,2013-07-30 01:38:00,
2013-07-29 21:44:00,67.7,63.4,30.12,NW,317,0.0,0.0,86,0.00,,,0.00,Wunderground v.1.15,2013-07-30 01:44:00,
2013-07-29 21:50:00,67.4,63.4,30.13,NW,317,0.0,0.0,87,0.00,,,0.00,Wunderground v.1.15,2013-07-30 01:50:00,
2013-07-29 21:56:00,67.2,63.2,30.13,NW,317,0.0,0.0,87,0.00,,,0.00,Wunderground v.1.15,2013-07-30 01:56:00,
2013-07-29 22:02:00,67.0,63.0,30.13,NW,317,0.0,0.0,87,0.00,,,0.00,Wunderground v.1.15,2013-07-30 02:02:00,
2013-07-29 22:08:00,66.9,63.2,30.13,NW,317,0.0,0.0,88,0.00,,,0.00,Wunderground v.1.15,2013-07-30 02:08:00,
2013-07-29 22:14:00,66.7,63.0,30.13,NW,317,0.0,0.0,88,0.00,,,0.00,Wunderground v.1.15,2013-07-30 02:14:00,
2013-07-29 22:20:00,66.4,63.1,30.14,NW,317,0.0,0.0,89,0.00,,,0.00,Wunderground v.1.15,2013-07-30 02:20:00,
2013-07-29 22:26:00,66.2,62.9,30.14,NW,317,0.0,1.0,89,0.00,,,0.00,Wunderground v.1.15,2013-07-30 02:26:00,
2013-07-29 22:32:00,66.1,63.1,30.14,NW,317,0.0,0.0,90,0.00,,,0.00,Wunderground v.1.15,2013-07-30 02:32:00,
2013-07-29 22:40:00,66.0,63.0,30.14,NW,317,0.0,0.0,90,0.00,,,0.00,Wunderground v.1.15,2013-07-30 02:40:00,
2013-07-29 22:46:00,65.9,62.9,30.15,NW,317,0.0,0.0,90,0.00,,,0.00,Wunderground v.1.15,2013-07-30 02:46:00,
2013-07-29 22:52:00,65.9,62.9,30.15,NW,317,0.0,0.0,90,0.00,,,0.00,Wunderground v.1.15,2013-07-30 02:52:00,
2013-07-29 22:58:00,65.7,62.7,30.15,NW,317,0.0,0.0,90,0.00,,,0.00,Wunderground v.1.15,2013-07-30 02:58:00,
2013-07-29 23:04:00,65.5,62.5,30.14,NW,317,0.0,0.0,90,0.00,,,0.00,Wunderground v.1.15,2013-07-30 03:04:00,
2013-07-29 23:12:00,65.4,62.7,30.14,NW,317,0.0,0.0,91,0.00,,,0.00,Wunderground v.1.15,2013-07-30 03:12:00,
2013-07-29 23:18:00,65.2,62.5,30.15,NW,317,0.0,0.0,91,0.00,,,0.00,Wunderground v.1.15,2013-07-30 03:18:00,
2013-07-29 23:24:00,65.1,62.7,30.14,NW,317,0.0,0.0,92,0.00,,,0.00,Wunderground v.1.15,2013-07-30 03:24:00,
2013-07-29 23:30:00,65.0,62.6,30.15,NW,317,0.0,0.0,92,0.00,,,0.00,Wunderground v.1.15,2013-07-30 03:30:00,
2013-07-29 23:38:00,64.8,62.4,30.15,NW,317,0.0,0.0,92,0.00,,,0.00,Wunderground v.1.15,2013-07-30 03:38:00,
2013-07-29 23:44:00,64.6,62.2,30.14,NW,317,0.0,0.0,92,0.00,,,0.00,Wunderground v.1.15,2013-07-30 03:44:00,
2013-07-29 23:50:00,64.4,62.0,30.14,NW,317,0.0,0.0,92,0.00,,,0.00,Wunderground v.1.15,2013-07-30 03:50:00,
2013-07-29 23:56:00,64.2,61.8,30.14,NW,317,0.0,0.0,92,0.00,,,0.00,Wunderground v.1.15,2013-07-30 03:56:00,